Regional Weather Roundup
Issued by NWS Jackson, KY

Home | Current Version | Previous Version | Graphics & Text | Print | Product List | Glossary On
Versions: 1 2 3 4 5 6 7 8 9 10 11 12 13 14 15 16 17 18 19 20 21 22 23 24 25 26 27
000
ASUS43 KJKL 250010
RWRJKL

EAST KENTUCKY HOURLY WEATHER ROUNDUP
NATIONAL WEATHER SERVICE JACKSON KY
800 PM EDT SUN SEP 24 2017

NOTE: "FAIR" INDICATES FEW OR NO CLOUDS BELOW 12,000 FEET WITH
NO SIGNIFICANT WEATHER AND/OR OBSTRUCTIONS TO VISIBILITY.

* THESE REPORTS ARE NOT UNDER NWS QUALITY CONTROL AND MAY NOT
  REPORT WEATHER SUCH AS PRECIPITATION AND FOG.

KYZ079-080-083-085-087-088-110-112-115-119-120-250100
...EASTERN KENTUCKY...

CITY           SKY/WX    TMP DP  RH WIND       PRES   REMARKS
JACKSON        CLOUDY    75  60  59 CALM      30.08R
6HR MIN TEMP:  73; 6HR MAX TEMP:  86;

LONDON         CLEAR     77  64  64 CALM      30.06R
6HR MIN TEMP:  77; 6HR MAX TEMP:  87;

SOMERSET*      PTCLDY    73  64  73 CALM      30.05S
MONTICELLO*    MOCLDY    73  68  84 NW9       30.06S
6HR MIN TEMP:  73; 6HR MAX TEMP:  88;

WILLIAMSBURG*  CLEAR     75  68  78 CALM      30.05S
MIDDLESBORO*   CLEAR     73  64  73 W3        30.07R
6HR MIN TEMP:  73; 6HR MAX TEMP:  87;

HARLAN APT*    CLOUDY    73  64  73 CALM      30.08S
PIKE CO APT*     N/A     74  62  65 NE5       30.08S
BIG SANDY APT* CLEAR     73  64  72 CALM      30.07S
6HR MIN TEMP:  73; 6HR MAX TEMP:  85;

MOREHEAD APT*  PTCLDY    77  63  61 CALM      30.08S
$$

KYZ035-036-041-042-044-050-067-078-099-250100
...CENTRAL KENTUCKY...

CITY           SKY/WX    TMP DP  RH WIND       PRES   REMARKS
MT STERLING*   CLEAR     77  61  57 E6        30.07S
FLEMING/MASON* CLEAR     76  59  55 SE3       30.07S
DANVILLE*      CLEAR     73  63  68 CALM      30.06R
LEXINGTON      PTCLDY    79  62  56 NE6       30.05S
6HR MIN TEMP:  79; 6HR MAX TEMP:  88;

FRANKFORT      PTCLDY    74  61  63 CALM      30.03S
6HR MIN TEMP:  74; 6HR MAX TEMP:  89;

LOUISVILLE     PTCLDY    84  58  40 E6        30.00S
6HR MIN TEMP:  84; 6HR MAX TEMP:  91;

LEBANON*         N/A     75  64  69 CALM      30.04R
GLASGOW*       MOCLDY    73  70  91 E3        30.02S
BOWLING GREEN  PTCLDY    80  70  71 CALM      30.00F
6HR MIN TEMP:  79; 6HR MAX TEMP:  89;

$$

KYZ091>093-OHZ055-061-077-WVZ005-015-034-035-042-250100
...SOUTHERN OHIO/WEST VIRGINIA...

CITY           SKY/WX    TMP DP  RH WIND       PRES   REMARKS
COVINGTON      PTCLDY    77  55  46 SE5       30.05S
COLUMBUS       PTCLDY    81  63  54 NE3       30.06S
DAYTON         PTCLDY    81  53  37 SE5       30.07S
WILMINGTON     PTCLDY    77  60  55 E3        30.07S
HUNTINGTON     CLEAR     79  58  48 CALM      30.05R
CHARLESTON     MOCLDY    77  63  61 CALM      30.05S
PINEVILLE*     PTCLDY    69  58  67 MISG      30.14S
BECKLEY        CLEAR     71  55  56 SE3       30.15R
BLUEFIELD      PTCLDY    71  51  49 SE3       30.17S
LOGAN CO APT*    N/A     77  61  57 CALM      30.09S
$$

VAZ002-007-008-TNZ017-027-036-066-071-250100
...SOUTHWEST VIRGINIA/EAST TENNESSEE...

CITY           SKY/WX    TMP DP  RH WIND       PRES   REMARKS
WISE*          CLOUDY    73  55  53 CALM      30.15F
JONESVILLE*      N/A     77  64  65 CALM      30.08S
ABINGDON*      PTCLDY    76  53  43 E8        30.11S
BRISTOL        CLOUDY    77  63  61 SE3       30.06S
MORRISTOWN*    PTCLDY    81  59  47 CALM      30.03S
SEVIERVILLE*   CLEAR     79  57  47 CALM      30.01F
KNOXVILLE      PTCLDY    80  62  54 NW6       30.01S
LAFOLLETTE*    CLEAR     73  66  78 CALM      30.07S
OAK RIDGE      CLEAR     76  67  73 CALM      30.04S
CROSSVILLE     CLEAR     71  65  81 CALM      30.09S
NASHVILLE      MOCLDY    80  65  59 CALM      30.01R
$$

...KEY TO REMARKS...
VSB - VISIBILITY IN MILES
WCI - WIND CHILL INDEX
HX  - HEAT INDEX

$$




USA.gov is the U.S. government's official web portal to all federal, state and local government web resources and services.